Location: Tel Aviv
(32.0670°N, 34.7670°E)
Time: 13:32:53
(UTC+03:00)

Explorer 11/Cluster Stage 4 - Pass Details

Date: 17 September 2024
Orbit: 464 x 1208 km, 28.8° (Epoch: 05 October)

Event Time Altitude Azimuth Distance (km) Brightness Sun altitude
Rises 11:24:56 0° 274° (W) 3,980 10.0 55.7°
Reaches altitude 10° 11:27:56 10° 265° (W) 3,079 9.6 56.0°
Maximum altitude 11:34:52 35° 203° (SSW) 1,832 9.4 56.7°
Drops below altitude 10° 11:41:51 10° 141° (SE) 3,092 10.3 57.4°
Sets 11:44:53 0° 133° (SE) 3,998 10.6 57.7°
